Location: Mohawk View
(42.7837°N, 73.7885°W)
Time: 02:18:51
(UTC+00:00)

Cosmos 2098 Rocket - Pass Details

Date: 17 June 2021
Orbit: 366 x 1176 km, 82.9° (Epoch: 02 August)

Event Time Altitude Azimuth Distance (km) Brightness Sun altitude
Exits shadow 06:19:48 34° 163° (SSE) 1,431 4.5 -21.1°
Maximum altitude 06:22:19 63° 95° (E) 918 3.9 -20.9°
Drops below altitude 10° 06:27:10 10° 15° (NNE) 2,177 7.0 -20.6°
Sets 06:29:14 0° 12° (NNE) 2,980 8.1 -20.4°
